    Observer details:
    033 Karl Schwarzschild Observatory, Tautenburg.  Observers B. Stecklum,
        C. Hoegner.  Measurer B. Stecklum.  1.34-m f/3 Schmidt + CCD.
    203 GiaGa Observatory.  Observers S. Foglia, G. Galli.  Measurer G. Galli.
        0.28-m f/6.8 Schmidt-Cassegrain + CCD.
    204 Schiaparelli Observatory.  Observer L. Buzzi.  0.60-m f/4.64 reflector
        + CCD.
    246 Klet Observatory-KLENOT.  Observers M. Tichy, J. Ticha.  Measurer M. Tichy.
        1.06-m KLENOT Telescope + CCD.
    461 University of Szeged, Piszkesteto Stn. (Konkoly).  Observer K. Sarneczky.
        0.60-m Schmidt + CCD.
    587 Sormano.  Observers A. Fumagalli, I. Proserpio, A. Testa.  Measurer
        A. Testa.  0.5-m f/6.8 reflector + CCD.
    595 Farra d'Isonzo.  Observers F. Buso, E. Pettarin.  Measurer E. Pettarin.
        0.40-m f/4.5 reflector + CCD.
    703 Catalina Sky Survey.  Observer R. A. Kowalski.  Measurers
        E. J. Christensen, D. C. Fuls, A. R. Gibbs, A. D. Grauer, J. A. Johnson,
        R. A. Kowalski, S. M. Larson, G. J. Leonard, R. G. Matheny, R. L. Seaman,
        F. C. Shelly.  0.68-m Schmidt + CCD.
    C43 Hoyerswerda.  Observer P. Lindner.  0.30-m f/6.3 Schmidt-Cassegrain + CCD.
    C47 Nonndorf.  Observer G. Dangl.  0.25-m f/4.8 reflector + CCD.
    C77 Bernezzo Observatory.  Observer A. Mantero.  0.25-m f/4 reflector + CCD.
    G58 Chabot Space and Science Center, Oakland.  Observer G. McKeegan.  0.9-m
        f/4.5 Cassegrain + CCD.
    G96 Mt. Lemmon Survey.  Observers R. G. Matheny, D. C. Fuls.  Measurers
        E. J. Christensen, D. C. Fuls, A. R. Gibbs, A. D. Grauer, J. A. Johnson,
        R. A. Kowalski, S. M. Larson, G. J. Leonard, R. G. Matheny, R. L. Seaman,
        F. C. Shelly.  1.5-m reflector + 10K CCD.
    H21 Astronomical Research Observatory, Westfield.  Observer R. Holmes.
        Measurers S. Foglia, L. Buzzi, T. Linder, R. Holmes, S. T. Linder.  0.61-m
        f/4.5 astrograph + CCD, 0.76-m f/3.0 astrograph + CCD, 0.81-m f/4.0
        astrograph + CCD.
    J95 Great Shefford.  Observer P. Birtwhistle.  0.40-m f/6.0 Schmidt-Cassegrain
        + CCD.
    L04 ROASTERR-1 Observatory, Cluj-Napoca.  Observer L. Hudin.  0.3-m f/5.0
        reflector + CCD.
    
    Orbital elements:
    2016 RH17                                                Earth MOID = 0.0058 AU
    Epoch 2016 July 31.0 TT = JDT 2457600.5                 MPC
    M 318.16837              (2000.0)            P               Q
    n   0.60634708     Peri.  211.03408     +0.93737818     -0.33720764
    a   1.3824683      Node   167.70100     +0.33813995     +0.94108595
    e   0.2996596      Incl.   24.18064     -0.08356752     +0.02546050
    P   1.63           H   23.5           G   0.15           U   6
    Residuals in seconds of arc
    160905 G96  0.2-  0.3+    160906 703  1.1+  2.3-    160907 H21  0.4+  0.2+
    160905 G96  0.0   0.3+    160906 703  0.9+  1.5+    160907 H21  0.1+  0.4+
    160905 G96  0.2-  0.0     160906 L04  0.7-  0.2-    160907 H21  0.3+  0.3+
    160905 G96  0.2+  0.0     160906 L04  0.6-  0.4-    160907 246  0.7-  0.1+
    160905 G96  0.3-  0.3+    160906 L04  0.3-  0.8-    160907 246  0.5+  0.3+
    160905 H21  0.1-  0.3+    160906 587  1.5-  1.1-    160907 246  0.5-  0.4+
    160905 G96  0.3-  0.0     160906 587  1.4-  1.8-    160907 246  1.4-  0.2+
    160905 H21  0.0   0.0     160906 587  1.2-  1.8-    160907 246  0.3+  0.1+
    160905 G96  0.1+  0.3+    160906 033  0.3-  0.2-    160907 246  0.2-  0.5+
    160905 G96  0.2-  0.1-    160906 033  0.2-  0.1-    160907 246  0.1-  0.1+
    160905 H21  0.2-  0.1+    160906 033  0.1-  0.0     160907 246  0.6-  0.2-
    160905 H21  0.1+  0.6+    160906 204  0.4+  0.1+    160907 246  0.4+  1.0+
    160905 203  0.1+  0.0     160906 C43  0.1-  0.1-    160907 246  0.3-  0.3+
    160905 203  0.5+  0.1+    160906 C43  0.7+  1.0+    160907 246  0.2-  0.3-
    160906 H21  0.3-  0.2+    160906 C43  0.1+  0.7+    160907 246  0.6-  0.3-
    160906 H21  0.2-  0.1+    160906 204  0.5+  0.5+    160907 246  0.2+  0.4+
    160906 H21  0.1-  0.0     160906 C43  0.0   0.1+    160907 246  0.0   0.9+
    160906 H21  0.1+  0.5+    160906 C77  0.1+  0.4+    160907 246  0.3+  0.1-
    160906 H21  0.1-  0.2+    160906 C77  0.3+  0.2+    160907 246  0.5-  0.3+
    160906 H21  0.1+  0.5+    160906 595  0.1+  0.0     160907 246  0.2+  0.3+
    160906 G96  0.2-  0.2+    160906 595  0.4+  0.3-    160907 C47  0.1+  0.4+
    160906 G96  0.5+  0.9+    160906 033  0.4+  0.5+    160907 C47  0.3+  0.5+
    160906 G96  0.2+  0.3+    160906 033  0.1+  0.2+    160907 C47  0.5+  0.5+
    160906 G58  0.3-  0.4+    160906 J95  0.4+  0.6+    160907 461  0.3+  0.3+
    160906 703  0.7+  0.1+    160906 033  0.1+  0.1+    160907 461  0.1+  0.2-
    160906 G58  0.1-  0.1+    160906 595  0.1+  0.2-    160907 C47  0.3+  0.1+
    160906 703  0.2-  0.4+    160906 J95  0.4+  0.4+    160907 461  0.2+  0.5-
    160906 G58  0.1-  0.1+    160906 J95  0.0   0.4+
    
    Ephemeris:
    2016 RH17                a,e,i = 1.38, 0.30, 24                  q = 0.9682
    Date    TT    R. A. (2000) Decl.     Delta      r     Elong.  Phase     V
    2016 08 08    19 28 11.2 +54 27 10   0.2664  1.1171   106.0    60.8    23.0
    ...
    2016 08 23    19 06 13.8 +54 04 46   0.1532  1.0587   104.0    67.9    21.9
    ...
    2016 08 31    18 44 04.3 +51 23 32   0.09047 1.0318   101.8    73.2    20.9
    ...
    2016 09 06    18 02 27.8 +42 47 38   0.04370 1.0142    97.0    80.6    19.5
    2016 09 07    17 48 53.5 +38 59 22   0.03625 1.0115    95.0    83.0    19.2
    2016 09 08    17 31 05.5 +33 07 04   0.02914 1.0089    91.9    86.4    18.9
    ...
    2016 09 14    12 07 43.7 -62 23 33   0.02868 0.9946    66.2   112.3    20.1
    ...
    2016 09 22    08 44 15.7 -62 32 23   0.09008 0.9802    72.4   102.6    22.0
    ...
    2016 10 07    08 09 02.1 -59 26 48   0.2056  0.9685    75.5    92.7    23.3
    
    A. U. Tomatic                (C) Copyright 2016 MPC           M.P.E.C. 2016-R81
    

    Read MPEC 2016-R80 Read MPEC 2016-R82


    MPEC number:

    Enter an MPEC number in one of the following forms:

    • 1997-B01 (the full form)
    • J97B01 (the packed version of the full form)
    • B01 (the abbreviated form)